TimePDT,TemperatureF,Dew PointF,Humidity,Sea Level PressureIn,VisibilityMPH,Wind Direction,Wind SpeedMPH,Gust SpeedMPH,PrecipitationIn,Events,Conditions,WindDirDegrees,DateUTC
12:53 AM,64.9,44.1,47,30.01,10.0,WSW,5.8,-,N/A,,Clear,250,2012-10-14 07:53:00
1:53 AM,61.0,43.0,52,30.01,10.0,West,6.9,-,N/A,,Clear,280,2012-10-14 08:53:00
2:53 AM,61.0,44.1,54,30.00,10.0,West,5.8,-,N/A,,Clear,280,2012-10-14 09:53:00
3:53 AM,61.0,41.0,48,30.00,10.0,WNW,4.6,-,N/A,,Clear,290,2012-10-14 10:53:00
4:53 AM,61.0,41.0,48,30.01,10.0,Calm,Calm,-,N/A,,Clear,0,2012-10-14 11:53:00
5:53 AM,59.0,43.0,55,30.02,10.0,West,4.6,-,N/A,,Clear,270,2012-10-14 12:53:00
6:53 AM,57.9,45.0,62,30.02,10.0,West,6.9,-,N/A,,Clear,270,2012-10-14 13:53:00
7:53 AM,64.0,46.0,52,30.04,10.0,West,3.5,-,N/A,,Clear,260,2012-10-14 14:53:00
8:53 AM,71.1,51.1,49,30.05,10.0,Calm,Calm,-,N/A,,Clear,0,2012-10-14 15:53:00
9:53 AM,77.0,51.1,40,30.05,10.0,Calm,Calm,-,N/A,,Clear,0,2012-10-14 16:53:00
10:53 AM,84.0,48.0,28,30.04,10.0,Calm,Calm,-,N/A,,Clear,0,2012-10-14 17:53:00
11:53 AM,88.0,46.9,24,30.02,10.0,Calm,Calm,-,N/A,,Clear,0,2012-10-14 18:53:00
12:53 PM,91.0,48.0,23,29.99,10.0,Variable,6.9,-,N/A,,Clear,0,2012-10-14 19:53:00
1:53 PM,91.0,46.0,21,29.96,10.0,NNE,6.9,17.3,N/A,,Clear,20,2012-10-14 20:53:00
2:53 PM,91.9,45.0,20,29.93,10.0,West,5.8,-,N/A,,Clear,280,2012-10-14 21:53:00
3:53 PM,91.9,46.0,21,29.91,10.0,NW,3.5,-,N/A,,Clear,310,2012-10-14 22:53:00
4:53 PM,91.0,48.0,23,29.90,10.0,West,6.9,-,N/A,,Clear,280,2012-10-14 23:53:00
5:53 PM,87.1,48.9,27,29.89,10.0,West,3.5,-,N/A,,Clear,280,2012-10-15 00:53:00
6:53 PM,80.1,48.9,34,29.89,10.0,WSW,4.6,-,N/A,,Clear,250,2012-10-15 01:53:00
7:53 PM,75.0,48.9,40,29.89,10.0,WSW,4.6,-,N/A,,Clear,250,2012-10-15 02:53:00
8:53 PM,73.9,48.0,40,29.90,10.0,WNW,5.8,-,N/A,,Clear,290,2012-10-15 03:53:00
9:53 PM,72.0,46.9,41,29.91,10.0,West,5.8,-,N/A,,Clear,280,2012-10-15 04:53:00
10:53 PM,70.0,46.0,42,29.91,10.0,WSW,4.6,-,N/A,,Clear,250,2012-10-15 05:53:00
11:53 PM,66.9,46.9,49,29.90,10.0,Calm,Calm,-,N/A,,Clear,0,2012-10-15 06:53:00